FENGYUN 1C DEB

Satellite information

Favourite Embed

Satellite Type and Status

DEBRISIN ORBIT

Key statistics

Satellite FENGYUN 1C DEB at a glance.

Uptime

9497

Days in orbit

Revolutions

≈ 14.0

Per day

Orbit

SSO

Sun Synchronous Orbit

Inclination

99.0

Latest

Satellite identification and parameters

Extended collection of information and parameters for FENGYUN 1C DEB.

Object identification

Identified? True

Debris? True

Object name: FENGYUN 1C DEB

International designator: 1999-025ET

Object number (NORAD): 29849

Object ID (CCSDS): 29849

Country: PEOPLES REPUBLIC OF CHINA (PRC)

Current information (Y/N): Y

RCS size: SMALL

Orbital parameters

Period: 102.56 minutes

Inclination: 99.0149 deg

SMA: 7257.937 km

Apoapsis: 937.81 km

Periapsis: 821.794 km

RAAN: 215.8947 deg

Eccentricy: 0.0079923

Argument of periapsis: 286.3773 deg

Mean anomaly: 137.1887 deg

Mean motion: 14.04051272 rev/day

Mean motion (dot): 0.00001621 rev/day2

B* drag term: 0.0010231 1/REarth

Two-line elements (TLE)

Creation date: May 10, 2025, 2:32 a.m.

Reference frame: TEME

Reference center: EARTH

Epoch: May 9, 2025, 10:32 p.m. UTC

TLE line 0: 0 FENGYUN 1C DEB

TLE line 1: 1 29849U 99025ET 25129.93910353 .00001621 00000-0 10231-2 0 9998

TLE line 2: 2 29849 99.0149 215.8947 0079923 286.3773 137.1887 14.04051272933273

Live tracking on map

Real-time ground track for satellite FENGYUN 1C DEB.

In-orbit conjunctions

A list of the most updated potential collisions computed for object FENGYUN 1C DEB.

Target Orbit TCA Probability of collision Miss distance Type
FENGYUN 1C DEB SSO 2024-12-12 21:17:00 0.0001019583 229.0 (m) DEBRIS
COSMOS 886 DEB LEO 2024-09-27 05:42:04 0.0002252473 85.0 (m) DEBRIS

Associated space launch

Chinese polar orbiting meteorological satellite

FENGYUN 1C DEB was lifted into orbit during the mission ‘Long March 4B | Feng Yun 1C’, on board a Long March 4B space rocket.

The launch took place on May 10, 1999, 1:33 a.m. from Launch Complex 7.

For more information about the launch, click the button.

Launch to space Long March 4B | Feng Yun 1C
Long March 4B | Feng Yun 1C

Agency: N/A

Status: Launch Successful

Launch date: May 10, 1999, 1:33 a.m. UTC

Rocket: Long March 4B

Launch pad: Launch Complex 7

Location: Taiyuan Satellite Launch Center, People's Republic of China

...

Latest news about this satellite

There are no fresh news available about this satellite. Check back as we update our databases every day.


Newsletter sign-up

Weekly statistics, charts and insights to help you stay on top of the space industry.